Location: Newark
(55.2875°N, 3.1864°W)
Time: 19:27:55
(UTC+00:00)

N. Korean satellite - Visible Passes

Search period start: 19 January 2020 00:00
Search period end: 29 January 2020 00:00
Orbit: 454 x 508 km, 97.2° (Epoch: 19 January)

Date Brightness Start Highest point End Pass type
(mag) Time Alt. Az. Time Alt. Az. Time Alt. Az.
19 Jan 9.5 05:09:27 10° NE 05:11:47 17° E 05:14:08 10° SE visible
19 Jan 6.6 06:42:04 10° N 06:45:29 54° WNW 06:48:57 10° SSW visible
19 Jan 7.8 17:24:25 10° S 17:27:43 45° W 17:31:03 10° NNW visible
20 Jan 6.5 06:16:29 10° NNE 06:20:01 81° ESE 06:23:34 10° SSW visible
21 Jan 7.8 05:51:05 10° NNE 05:54:28 43° E 05:57:52 10° S visible
21 Jan 7.7 07:24:55 10° N 07:27:40 22° WNW 07:30:27 10° WSW visible
21 Jan 9.6 18:08:02 10° SW 18:10:22 17° W 18:12:43 10° NW visible
22 Jan 8.9 05:25:53 10° NE 05:28:49 24° E 05:31:47 10° SSE visible
22 Jan 7.0 06:59:03 10° N 07:02:19 36° WNW 07:05:37 10° SW visible
22 Jan 8.7 17:41:37 10° SSW 17:44:40 30° W 17:47:45 10° NNW visible
23 Jan 9.8 05:01:06 10° NE 05:03:05 14° E 05:05:05 10° ESE visible
23 Jan 6.4 06:33:22 10° N 06:36:54 66° WNW 06:40:26 10° SSW visible
23 Jan 7.3 17:15:41 10° S 17:19:03 56° W 17:22:28 10° NNW visible
24 Jan 6.9 06:07:50 10° NNE 06:11:23 66° ESE 06:14:57 10° S visible
24 Jan 10.0 18:26:05 10° WSW 18:27:25 12° W 18:28:46 10° WNW visible
25 Jan 8.2 05:42:29 10° NNE 05:45:48 35° E 05:49:08 10° SSE visible
25 Jan 7.5 07:16:06 10° N 07:19:06 26° WNW 07:22:07 10° WSW visible
25 Jan 9.4 17:59:00 10° SW 18:01:39 20° W 18:04:19 10° NW visible
26 Jan 9.3 05:17:22 10° NE 05:20:07 21° E 05:22:54 10° SE visible
26 Jan 6.8 06:50:19 10° N 06:53:43 44° WNW 06:57:10 10° SW visible
26 Jan 8.3 17:32:46 10° SSW 17:35:58 36° W 17:39:13 10° NNW visible
27 Jan 10.0 04:52:53 10° ENE 04:54:22 12° E 04:55:51 10° ESE visible
27 Jan 6.4 06:24:40 10° NNE 06:28:16 82° WNW 06:31:53 10° SSW visible
28 Jan 7.3 05:59:12 10° NNE 06:02:44 54° E 06:06:17 10° S visible
28 Jan 9.8 18:16:43 10° WSW 18:18:39 14° W 18:20:38 10° NW visible
